Regional Weather Roundup
Issued by NWS

Home | Current Version | Previous Version | Text Only | Print | Product List | Glossary On
Versions: 1 2 3 4 5 6 7 8 9 10 11 12 13 14 15 16 17 18 19 20 21 22 23 24 25 26 27 28 29 30 31 32 33 34 35 36 37 38 39 40 41 42 43 44 45 46 47 48 49 50
000
ASUS44 KOUN 011810
RWROK

WEATHER ROUNDUP FOR OKLAHOMA
NATIONAL WEATHER SERVICE NORMAN OK
100 PM CDT WED OCT 01 2014

NOTE: "FAIR" INDICATES FEW OR NO CLOUDS BELOW 12,000 FEET WITH NO
      SIGNIFICANT WEATHER AND/OR OBSTRUCTIONS TO VISIBILITY.

OKZ001>007-009>012-014-015-017-011900-
NORTHWEST OKLAHOMA AND THE PANHANDLE

CITY           SKY/WX    TMP DP  RH WIND       PRES   REMARKS
GAGE             N/A    N/A N/A N/A MISG      29.75F
ENID/WOODRING  MOSUNNY   88  66  48 S17G28    29.70F HX  90
$$

OKZ016-021>023-033>039-044-045-011900-
SOUTHWEST OKLAHOMA

CITY           SKY/WX    TMP DP  RH WIND       PRES   REMARKS
LAWTON/REGL    FAIR      90  63  40 S21       29.75F HX  91
6HR MIN TEMP:  70; 6HR MAX TEMP:  90;

LAWTON/FT SILL FAIR      89  65  45 S15G22    29.75F HX  91
FREDERICK      FAIR      90  63  40 SW18      29.72F HX  91
CLINTON        FAIR      88  56  33 SW17      29.77F
HOBART         FAIR      89  57  33 SW15      29.75F
ALTUS AFB      FAIR      91  58  31 S10       29.74F HX  90
$$

OKZ018>020-024>031-011900-
CENTRAL OKLAHOMA

CITY           SKY/WX    TMP DP  RH WIND       PRES   REMARKS
OKLAHOMA CITY  CLOUDY    87  65  47 S18G24    29.74F
6HR MIN TEMP:  70; 6HR MAX TEMP:  89;

OKC/WILEY POST FAIR      89  65  44 SW20      29.74S HX  91
OKC/TINKER AFB FAIR      89  65  43 SW23G29   29.74F HX  91
STILLWATER     FAIR      90  67  46 S14       29.72S HX  93
GUTHRIE        FAIR      90  65  43 S18G28    29.72F HX  92
$$

OKZ008-013-054>072-011900-
NORTHEAST OKLAHOMA

CITY           SKY/WX    TMP DP  RH WIND       PRES   REMARKS
TULSA          FAIR      89  68  49 S20G28    29.73F HX  93
6HR MIN TEMP:  71; 6HR MAX TEMP:  89;

TULSA/JONES    FAIR      90  66  45 S21G28    29.74F HX  92
PONCA CITY     FAIR      88  66  48 S10G21    29.71F HX  90
BARTLESVILLE   FAIR      88  71  57 S12G22    29.74F HX  94
MUSKOGEE       FAIR      87  69  54 S18G25    29.80F HX  91
$$

OKZ032-040>043-046>053-073>077-011900-
SOUTH CENTRAL/SOUTHEAST OKLAHOMA

CITY           SKY/WX    TMP DP  RH WIND       PRES   REMARKS
ARDMORE/DWNTWN FAIR      86  66  51 S14       29.79F
MCALESTER      FAIR      87  68  52 S14G22    29.81F HX  90
$$



USA.gov is the U.S. government's official web portal to all federal, state and local government web resources and services.